Hors Challenge

Le Trail De La Montagne Saint-Pierre - Lanaye (18.00 km)

dimanche 08 mars 2020

 
LE TRAIL DE LA MONTAGNE SAINT-PIERRE - LANAYE
DISTANCE : 18.05 km
dimanche 08 mars 2020
 
Place dos NOM Catégorie Pl/cat temps temps/km Vitesse
01:00:00              
1 4136 ROUVROIS SIL HOMME 1 1:22:02 04:33 13.20
2 4002 ALBERT BENOIT HOMME 2 1:26:03 04:46 12.58
3 4172 WILLAMME SIMON HOMME 3 1:26:04 04:46 12.58
4 4065 FAGOT LAURENT HOMME 4 1:29:31 04:58 12.10
5 4139 SCHMITS RAPHAEL HOMME 5 1:30:21 05:00 11.98
6 4003 ARGENTO CARMELO HOMME 6 1:30:54 05:02 11.91
7 4070 FORNARO GIANLUCA HOMME 7 1:31:07 05:03 11.88
8 4176 GEELEN WALTER HOMME 8 1:31:19 05:04 11.86
9 4177 PIRON STÉPHANE HOMME 9 1:32:46 05:08 11.67
10 4045 DEPREZ THOMAS HOMME 10 1:32:49 05:09 11.67
11 4144 SOARES FERNANDO HOMME 11 1:33:47 05:12 11.55
12 4037 DARCIS JÉRÔME HOMME 12 1:34:07 05:13 11.51
13 4020 BONOMO SEBASTIEN HOMME 13 1:35:10 05:16 11.38
14 4110 MEYER GEOFFREY HOMME 14 1:35:54 05:19 11.29
15 4019 BONOMO GREGORY HOMME 15 1:36:02 05:19 11.28
16 4079 TRIPPAERS JÉROME HOMME 16 1:36:36 05:21 11.21
17 4175 HANSOTTE BERNARD HOMME 17 1:36:37 05:21 11.21
18 4048 DESADELEER JEAN-FRANCOIS HOMME 18 1:37:53 05:25 11.06
19 4142 SLEGERS JONAS HOMME 19 1:38:49 05:29 10.96
20 4010 BEX PETER HOMME 20 1:38:50 05:29 10.96
21 4173 WILMOTTE PIERRE-FRANÇOIS HOMME 21 1:39:02 05:29 10.93
22 4050 DEWALLEF PASCAL HOMME 22 1:39:21 05:30 10.90
23 4140 SEGHIN MAXIME HOMME 23 1:39:29 05:31 10.88
24 4009 BÉVALOT CLAUDY HOMME 24 1:39:41 05:31 10.86
25 4117 NEUTELINGS THIBAUT HOMME 25 1:40:46 05:35 10.75
26 4171 WATAR FRANCIS HOMME 26 1:41:45 05:38 10.64
27 4006 BALAZUN ALIZÉE DAME 1 1:42:04 05:39 10.61
28 4187 PANARIELLO MAURI HOMME 27 1:42:09 05:40 10.60
29 4033 COURTINADE BRUNO HOMME 28 1:42:11 05:40 10.60
30 4051 DE WITTE FRANCK HOMME 29 1:42:21 05:40 10.58
31 4082 HEYNS XAVIER HOMME 30 1:42:38 05:41 10.55
32 4152 TEN HAAF JENNY DAME 2 1:42:40 05:41 10.55
33 4022 BORGUET JEAN-MARIE HOMME 31 1:42:49 05:42 10.53
34 4021 BOONEN JEAN-MICHEL HOMME 32 1:43:03 05:43 10.51
35 4038 DARCIS PASCAL HOMME 33 1:43:05 05:43 10.50
36 4125 PIAZZA MANU HOMME 34 1:43:20 05:44 10.48
37 4163 VERJANS JEAN-BAPTISTE HOMME 35 1:43:42 05:45 10.44
38 4040 DEFAWES JEAN CHARLES HOMME 36 1:43:51 05:45 10.43
39 4109 MAHY SAMUEL HOMME 37 1:44:20 05:47 10.38
40 4098 LAMBERT LIONEL HOMME 38 1:45:10 05:50 10.30
41 4118 NIBUS THOMAS HOMME 39 1:46:38 05:55 10.15
42 4130 PROFITA PIERRE HOMME 40 1:46:52 05:55 10.13
43 4182 NORELLI STEPHANE HOMME 41 1:47:46 05:58 10.05
44 4179 DODEMONT ARNAUD HOMME 42 1:48:02 05:59 10.02
45 4180 X ?? HOMME 43 1:48:03 05:59 10.02
46 4113 MIGNON ANTHONY HOMME 44 1:48:11 06:00 10.01
47 4148 STAS JEAN-PIERRE HOMME 45 1:48:24 06:00 9.99
48 4153 TEN HAAF ROLAND HOMME 46 1:48:42 06:01 9.96
49 4015 BOLLAND MARC HOMME 47 1:48:54 06:02 9.94
50 4096 LAHAYE MARC HOMME 48 1:49:31 06:04 9.89
51 4023 BOTTIN GAETAN HOMME 49 1:49:33 06:04 9.88
52 4107 LEPOT CHRISTOPHE HOMME 50 1:49:54 06:05 9.85
53 4161 VANHERCK RUDI HOMME 51 1:50:04 06:06 9.84
54 4031 COLLINGS ERIC HOMME 52 1:50:13 06:06 9.82
55 4129 PROFETA LUCIO HOMME 53 1:50:42 06:08 9.78
56 4001 AERTS CORENTIN HOMME 54 1:50:57 06:09 9.76
57 4155 THIRION NATHALIE DAME 3 1:50:58 06:09 9.76
58 4005 BELLEM ROLAND HOMME 55 1:52:05 06:13 9.66
59 4008 BEURSKENS SANDRA DAME 4 1:52:34 06:14 9.62
60 4036 DANIELS JEAN-MARC HOMME 56 1:52:36 06:14 9.62
61 4026 BRASSINE VINCENT HOMME 57 1:53:06 06:16 9.57
62 4018 BONOMO DIMITRI HOMME 58 1:53:09 06:16 9.57
63 4052 DI CESARE STEPHANE HOMME 59 1:53:28 06:17 9.54
64 4047 DERCLAYE CHARLOTTE DAME 5 1:53:36 06:18 9.53
65 4115 MINGUET OLIVIER HOMME 60 1:54:09 06:20 9.49
66 4086 JACQUET CAROLINE DAME 6 1:54:12 06:20 9.48
67 4108 LIPPERTZ SYLVIA DAME 7 1:54:14 06:20 9.48
68 4011 BIEMAR LAURENT HOMME 61 1:54:16 06:20 9.48
69 4102 LECLERCQ SABRINA DAME 8 1:54:23 06:20 9.47
70 4091 KITTEL CHRISTOPH HOMME 62 1:54:39 06:21 9.44
71 4054 DORTU ALEXANDRE HOMME 63 1:54:41 06:21 9.44
72 4030 COLLEYE MICHAËL HOMME 64 1:54:57 06:22 9.42
73 4158 VANASCHEN VINCENT HOMME 65 1:55:10 06:23 9.40
74 4149 TASSIGNON CORENTIN HOMME 66 1:55:29 06:24 9.38
75 4097 LAMBERT FRÉDÉRIC HOMME 67 1:55:50 06:25 9.35
76 4014 BILOCQ LUDOVIC HOMME 68 1:56:23 06:27 9.30
77 4055 DORTU JONATHAN HOMME 69 1:56:43 06:28 9.28
78 4137 RUWET PASCAL HOMME 70 1:56:52 06:29 9.27
79 4183 X ?? HOMME 71 1:58:33 06:34 9.13
80 4126 PIRE RAPHAËL HOMME 72 1:59:05 06:36 9.09
81 4035 DALLE MATHIAS HOMME 73 2:00:26 06:40 8.99
82 4159 VANDERGEETEN CLAIRE DAME 9 2:00:30 06:41 8.99
83 4122 PATRICK DELARBRE HOMME 74 2:00:32 06:41 8.98
84 4076 GOURDANGE XAVIER HOMME 75 2:00:59 06:42 8.95
85 4041 DE FLINES PHILIPPE HOMME 76 2:01:23 06:44 8.92
86 4084 IMMERS MAURICE HOMME 77 2:02:26 06:47 8.84
87 4073 GOBLET LUC HOMME 78 2:02:41 06:48 8.83
88 4181 LICOT PHILIPPE HOMME 79 2:03:23 06:50 8.78
89 4012 BIERLY CHRISTOPHE HOMME 80 2:03:35 06:51 8.76
90 4103 LECLERCQ YANNICK HOMME 81 2:03:38 06:51 8.76
91 4074 GODEFROID SOPHIE DAME 10 2:03:39 06:51 8.76
92 4072 GILISSEN JEF HOMME 82 2:04:28 06:54 8.70
93 4131 QUAEDVLIEG MATTI HOMME 83 2:04:29 06:54 8.70
94 4135 ROMGENS ROB HOMME 84 2:04:37 06:54 8.69
95 4154 THIJS SOPHIE DAME 11 2:04:38 06:54 8.69
96 4061 EVRARD CATHERINE DAME 12 2:04:44 06:55 8.68
97 4046 DEQUIEDT FRANCK HOMME 85 2:04:51 06:55 8.67
98 4133 ROGISTER MARIEVE DAME 13 2:04:53 06:55 8.67
99 4178 CHAINEUX MARC HOMME 86 2:06:26 07:00 8.56
100 4085 JACOB LAURENT HOMME 87 2:08:39 07:08 8.42
101 4078 GROOTAERS THIERRY HOMME 88 2:09:29 07:10 8.36
102 4034 CRANSVELD CAROLINE DAME 14 2:10:37 07:14 8.29
103 4062 FABRY LÉON HOMME 89 2:10:58 07:15 8.27
104 4147 STALLENBERG VANESSA DAME 15 2:11:18 07:17 8.25
105 4141 SIMONIS JOELLE DAME 16 2:11:36 07:18 8.23
106 4169 WALTER GEELEN HOMME 90 2:11:36 07:18 8.23
107 4007 BESEM AUDREY DAME 17 2:12:44 07:21 8.16
108 4168 WAGELMANS ARNAUD HOMME 91 2:14:11 07:26 8.07
109 4056 DOUIN SERGE HOMME 92 2:14:29 07:27 8.05
110 4092 KREEMERS FRED HOMME 93 2:15:21 07:30 8.00
111 4128 PITON DENIS HOMME 94 2:15:35 07:31 7.99
112 4146 SOMJA FLORENCE DAME 18 2:15:41 07:31 7.98
113 4069 FILARDI JULIEN HOMME 95 2:17:34 07:37 7.87
114 4127 PIRLOTTE FABIEN HOMME 96 2:17:35 07:37 7.87
115 4064 FAFCHAMPS CATHERINE DAME 19 2:18:29 07:40 7.82
116 4059 ERPICUM PASCAL HOMME 97 2:18:29 07:40 7.82
117 4075 GONSET KARIN DAME 20 2:18:56 07:42 7.79
118 4049 DE TOFFOL YVES HOMME 98 2:18:57 07:42 7.79
119 4104 LEGRAND ANDRÉ HOMME 99 2:18:59 07:42 7.79
120 4119 NIVARD SOPHIE DAME 21 2:19:03 07:42 7.79
121 4088 JODOGNE MARIE JEANNE DAME 22 2:19:04 07:42 7.79
122 4089 JODOGNE MARIE-JEANNE DAME 23 2:19:04 07:42 7.79
123 4170 WARNOTTE PATRICK HOMME 100 2:19:28 07:44 7.76
124 4071 FREDERICKX ULRICH HOMME 101 2:20:33 07:47 7.70
125 4106 LENART BENOÎT HOMME 102 2:20:36 07:47 7.70
126 4199 DENOISIEUX CHRISTIAN HOMME 103 2:20:49 07:48 7.69
127 4081 HENRY MARIE JENNIFER DAME 24 2:21:00 07:49 7.68
128 4028 CHAGNON MARIE-CLAUDE DAME 25 2:21:17 07:50 7.66
129 4029 COLLEYE EMILIE DAME 26 2:22:11 07:53 7.62
130 4121 PALUMBO GIUSEPPE HOMME 104 2:25:00 08:02 7.47
131 4156 THONON EVE DAME 27 2:25:00 08:02 7.47
132 4053 DOLCIMASCOLO BALDASSARE HOMME 105 2:25:00 08:02 7.47
133 4101 LEBURTON PASCALE DAME 28 2:25:00 08:02 7.47
134 4112 MICHOTTE SABINE DAME 29 2:25:01 08:02 7.47
135 4151 TASSIN YVES HOMME 106 2:25:01 08:02 7.47
136 4044 DE MARNEFFE GENEVIÈVE DAME 30 2:25:36 08:04 7.44
137 4157 VALENTINY AMELIE DAME 31 2:25:42 08:04 7.43
138 4166 VIERENDEEL PASCALE DAME 32 2:26:52 08:08 7.37
139 4077 GRETRY REGINE DAME 33 2:29:56 08:18 7.22
140 4058 DUBUFFET ERIC HOMME 107 2:30:04 08:19 7.22
141 4032 CORTIS MICHAËL HOMME 108 2:30:15 08:20 7.21
142 4134 ROI CARINE DAME 34 2:30:33 08:21 7.19
143 4111 MICHEROUX NATHALIE DAME 35 2:31:52 08:25 7.13
144 4160 VANDEVELDE STÉPHANIE DAME 36 2:31:52 08:25 7.13
145 4095 LACROIX AUDREY DAME 37 2:33:03 08:29 7.08
146 4063 FABRY VALERIE DAME 38 2:33:04 08:29 7.07
147 4099 LATTUCA LETIZIA DAME 39 2:33:05 08:29 7.07
148 4124 PÉTRÉ DOMINIQUE DAME 40 2:35:50 08:38 6.95
149 4094 KREUSCH ROBERT HOMME 109 2:54:04 09:39 6.22
150 4174 WYSOCKI NICOLAS HOMME 110 3:12:07 10:39 5.64